{"data":{"norad_id":57147,"intl_designator":"2023-090AY","name":"STARLINK-5765","alt_names":[],"object_type":"PAYLOAD","status":"ACTIVE","operator":null,"country":"US","launch_date":"2023-06-23","launch_site_code":"AFETR","launch_vehicle":null,"mission":null,"orbit_class":"UNKNOWN","rcs_meters":null,"size_class":null,"mass_kg":null,"dimensions":null,"purposes":["comms"],"wikipedia_slug":null,"has_3d_model":false,"image_url":null,"decayed_at":null,"tle_current":{"epoch":"2026-09-20T15:06:43.059456Z","epoch_age_seconds":109645,"freshness":"FRESH","line1":"1 57147U 23090AY  26263.62966504  .00000033  00000+0  10737-4 0  9992","line2":"2 57147  43.0005 242.6957 0001176 271.2361  88.8356 15.27576999180355","mean_motion":15.27576999,"eccentricity":0.0001176,"inclination_deg":43.0005,"raan_deg":242.6957,"arg_perigee_deg":271.2361,"mean_anomaly_deg":88.8356,"bstar":1.0737e-5,"rev_number":18035,"period_min":94.266933905307,"perigee_km":482.25120558631,"apogee_km":483.86495866963,"semimajor_km":6861.195082128,"source":"CELESTRAK","updated_at":"2026-09-21T09:00:33.567579Z"}}}